Skip Page Navigation
NASA JPL Caltech
NASA Logo - Jet Propulsion Laboratory + View the NASA Portal
+ Center for Near-Earth Object Studies
JPL Home Earth Solar System Stars & Galaxies Technology
JPL Solar System Dynamics
BODIES ORBITS EPHEMERIDES TOOLS PHYSICAL DATA DISCOVERY FAQ SITE MAP
JPL Small-Body Database Browser
Search: [ help ]  
67664 (2000 SJ269)
Classification: Main-belt Asteroid          SPK-ID: 2067664
Ephemeris | Orbit Diagram | Orbital Elements | Mission Design | Physical Parameters | Discovery Circumstances ]

[ show orbit diagram ]
Orbital Elements at Epoch 2459200.5 (2020-Dec-17.0) TDB
Reference: JPL 22 (heliocentric ecliptic J2000)
 Element Value Uncertainty (1-sigma)   Units 
e .1275014429359215 3.6472e-08  
a 2.224873596224772 7.4607e-09 au
q 1.94119900235608 7.882e-08 au
i 6.669806498077356 3.2478e-06 deg
node 156.3582619093199 3.2036e-05 deg
peri 218.4614733966778 3.4674e-05 deg
M 41.20030250922206 1.2847e-05 deg
tp 2459061.775124416535
(2020-Jul-31.27512442)
4.3183e-05 TDB
period 1212.150206879404
3.32
6.0971e-06
1.669e-08
d
yr
n .2969928957293131 1.4939e-09 deg/d
Q 2.508548190093463 8.412e-09 au
  Orbit Determination Parameters
   # obs. used (total)      625  
   data-arc span      22051 days (60.37 yr)  
   first obs. used      1960-09-24  
   last obs. used      2021-02-07  
   planetary ephem.      DE441  
   SB-pert. ephem.      SB441-N16  
   condition code      0  
   norm. resid. RMS      .49144  
   source      ORB  
   producer      Otto Matic  
   solution date      2021-Apr-13 12:31:30  

Additional Information
 Earth MOID = .944432 au 
 Jupiter MOID = 2.96042 au 
 T_jup = 3.627 
[ show covariance matrix ]

Ephemeris | Orbit Diagram | Orbital Elements | Mission Design | Physical Parameters | Discovery Circumstances ]

Physical Parameter Table
Parameter Symbol Value Units Sigma Reference Notes
absolute magnitude H 16.69   n/a MPCxxxxx  

67664 (2000 SJ269)          Discovered 2000-Sep-27 by LINEAR at Socorro
Reference: 20030910/Numbers.arcLast Updated: 2004-04-19

Alternate Designations
 2000 SJ269 = 1995 EX3 
Ephemeris | Orbit Diagram | Orbital Elements | Mission Design | Physical Parameters | Discovery Circumstances ]
ABOUT SSD CREDITS/AWARDS PRIVACY/COPYRIGHT GLOSSARY LINKS
FirstGov 2021-Jun-16 18:24 UT
(server date/time)  
NASA Home Page
Site Manager:   Ryan S. Park
Webmaster  Alan B. Chamberlin